カタログに戻る

OPS 9442 (DSCS 2-12) DEB

運用中MEO
NORAD 59992·DEBRIS·🇺🇸 United States

打ち上げ Dec 14, 1978 から Cape Canaveral Space Force Station

Loading…

次のパス (今後24時間)

TLE

最新Source: Space-Track

元期: Sep 7, 2026, 19:30 UTC

1 59992U 78113H   26250.81275250 -.00000023  00000-0  00000-0 0  9995
2 59992   8.1729 302.3256 0217473 110.4128 275.9294  0.98330775 59706

AllMySatでOPS 9442 (DSCS 2-12) DEBをリアルタイム追跡

Download on the App Store